Temp_Advection
nan nan nan nan nan nan nan nan nan nan nan nan nan nan nan nan nan nan nan nan nan nan nan nan nan nan nan nan nan nan nan nan nan nan nan nan nan nan nan nan nan nan nan nan
nan -0 -0 -0 -0 -0 -0 -0 -0 -0 -0 0 -0 -0 -0 -0 -1 -1 -0 0 0 0 -0 0 0 -0 0 1 1 0 0 0 0 0 0 0 -0 0 0 0 0 1 0 nan
nan -0 -0 -0 -0 -0 -0 -0 -0 -0 -0 -0 -0 -0 -0 -0 -0 -1 -1 -0 0 0 -0 0 0 0 0 1 1 0 0 0 0 0 0 0 0 -0 -0 0 0 0 1 nan
nan -0 -0 -0 -0 -0 -0 -0 -0 -0 -0 0 -0 -0 -0 -0 -0 -1 -1 -0 -0 0 0 0 0 0 0 1 0 0 0 0 0 0 0 0 -0 -0 -0 -0 -0 0 0 nan
nan -0 -0 -0 -0 -0 -0 0 -0 -0 0 0 -0 -0 -0 -0 -1 -0 -1 -1 -0 0 0 0 0 0 0 0 0 0 0 0 0 1 0 -0 -0 0 -0 -0 -0 -0 -0 nan
nan -0 -0 -0 -0 0 -0 -0 -0 0 0 -0 -0 -0 -0 -0 -1 -0 -0 -0 -0 0 0 0 0 0 0 0 0 0 -0 0 0 -0 0 0 0 -0 -0 0 0 -0 -0 nan
nan 0 -0 -0 -0 -0 -0 -0 -0 0 -0 -0 0 -0 -0 -0 -0 -0 -0 -0 -0 0 0 0 0 0 -0 -0 -0 -0 -0 -0 0 0 -0 0 0 0 0 0 0 0 -0 nan
nan -0 -0 -0 -0 -0 -0 -0 -0 -0 -0 -0 -0 -0 -0 -0 -0 -0 -0 -0 0 0 0 0 0 -0 -0 -0 -0 -0 -0 -0 -0 0 0 0 0 0 1 1 1 0 0 nan
nan -0 -0 -0 -0 0 0 -0 -0 0 -0 -0 -0 -0 -0 0 -0 -0 -0 -0 -0 0 0 -0 -0 -0 -0 -0 -0 -0 -0 -0 -0 0 0 1 1 0 0 0 1 1 1 nan
nan -0 -0 -0 -0 -0 -0 -0 -0 -0 -0 -0 -0 0 -0 -0 0 -0 -0 -0 -0 0 -0 -0 -0 -0 -0 -0 0 0 -0 -0 0 0 0 0 0 0 0 -0 -0 0 0 nan
nan 0 -0 -0 -0 -0 -0 -0 -0 -0 -0 -0 -0 -0 0 -0 0 -0 -0 -0 -0 0 -0 -0 -0 -0 0 0 -0 0 0 0 0 0 0 0 -0 -0 -0 -1 -1 -0 0 nan
nan 0 -0 -0 -0 0 -0 -0 -0 -0 -0 -0 -0 -0 0 -0 -0 -0 -0 -0 -0 0 0 0 0 0 -0 0 -0 -0 0 0 0 0 -0 0 -0 -1 -1 -1 -1 -0 -0 nan
nan 0 -0 0 -0 -0 -0 -0 0 0 0 -0 -0 0 0 -0 -0 -0 -0 -0 0 0 0 0 0 0 0 -0 -0 0 0 -0 0 0 0 -0 -1 -1 -1 -0 -1 -0 -0 nan
nan -0 -0 0 -0 -0 -0 -0 -0 -0 -0 -0 -0 -0 -1 -0 -0 -0 -0 0 0 0 0 0 0 0 -0 0 0 0 0 0 0 0 0 -0 -1 -1 -1 -0 0 0 0 nan
nan -0 0 -0 -0 0 0 -0 -0 -0 -0 -0 -0 -0 -0 -0 -0 -0 0 0 0 -0 0 0 -0 -0 0 -0 0 -0 -0 0 0 0 -0 -1 -1 -1 -0 0 0 0 0 nan
nan 0 0 -0 0 -0 0 -0 -0 0 0 -0 -0 -0 -0 0 -0 0 0 -0 0 -0 0 0 -0 0 -0 -0 -0 -0 -0 0 0 0 -1 -1 -1 -1 0 0 0 0 0 nan
nan -0 -0 0 0 -0 -0 -0 0 0 -0 -0 -0 -0 -0 -0 -0 0 0 0 0 0 0 -0 0 0 0 0 -0 0 0 0 0 -0 -1 -0 -1 -0 0 0 0 0 0 nan
nan -0 -0 -0 -0 -0 -0 -0 0 0 0 -0 0 0 -0 -0 -0 -0 0 0 0 0 -0 -0 0 -0 0 0 1 0 0 0 0 -1 -1 -1 -1 -0 0 0 0 0 1 nan
nan 0 -0 -0 0 -0 -0 -0 -0 -0 0 -0 -0 -0 -0 -1 0 0 -0 0 0 -0 -0 0 0 -0 0 0 0 0 0 -0 -1 -1 -1 -1 -1 0 1 0 0 1 0 nan
nan 0 -0 -0 0 -0 -0 -0 -1 -1 0 -1 -0 -0 -0 -1 0 -0 -0 -0 -0 -0 0 0 -0 0 0 0 -0 0 0 -0 -1 -1 -0 -0 -0 0 1 1 1 1 -0 nan
nan -0 -0 -0 -0 -0 0 0 -0 0 -0 -0 -0 -0 -0 -0 -1 -1 0 -0 -0 -0 0 -0 -0 0 -0 -0 0 0 0 -0 0 0 0 -1 -0 0 1 1 1 0 -0 nan
nan -0 -0 -0 -0 -0 -0 -0 -0 -0 -0 -0 -0 -0 -0 -0 0 0 0 -0 -0 0 0 -0 0 -0 0 0 0 0 -0 0 0 1 0 -1 -0 0 1 1 1 0 -1 nan
nan -0 -0 -0 -0 -0 -0 0 -0 -0 -0 0 0 0 0 0 0 0 -0 -0 -0 -0 -0 -0 0 0 0 0 0 0 -0 0 0 1 -0 0 -0 0 1 1 1 -0 -1 nan
nan 0 -0 -0 -0 -0 -0 -0 0 0 0 0 1 0 1 0 0 0 0 0 -0 -0 -0 0 0 0 0 0 0 0 0 0 1 0 -0 1 -1 -0 0 0 1 0 -0 nan
nan -0 -0 -0 -0 -0 0 0 0 0 1 1 1 0 0 0 0 0 0 0 -0 -0 -0 -0 0 0 0 0 0 0 0 0 0 -0 -0 -1 -1 -0 -1 0 1 -0 0 nan
nan nan nan nan nan nan nan nan nan nan nan nan nan nan nan nan nan nan nan nan nan nan nan nan nan nan nan nan nan nan nan nan nan nan nan nan nan nan nan nan nan nan nan nan
Wind_Speed
8 9 6 5 4 5 4 2 3 4 3 2 5 9 13 18 31 23 9 9 12 15 15 22 21 19 16 15 17 19 16 14 14 15 17 19 21 22 24 27 25 24 23 22
5 7 7 5 6 4 5 3 4 7 3 1 3 12 8 16 21 19 13 4 6 8 13 18 18 15 13 19 20 19 17 15 16 17 20 22 25 27 30 29 27 25 24 23
9 7 7 3 12 9 1 4 6 7 8 4 2 2 14 11 21 22 17 6 5 7 12 14 16 14 11 18 19 18 16 17 17 19 22 25 28 31 32 29 27 25 26 25
8 11 6 8 6 8 3 8 9 10 2 1 7 2 11 14 15 20 20 14 7 7 9 9 8 7 7 11 13 14 16 15 18 22 25 27 30 32 30 30 30 29 28 27
2 9 14 8 6 7 4 15 5 4 2 3 8 2 6 11 13 16 16 13 9 5 6 8 7 5 6 8 9 9 12 17 21 24 27 28 30 31 32 33 33 32 30 28
4 3 4 6 11 4 14 5 1 2 1 2 4 2 5 8 11 11 10 10 9 7 10 11 9 7 5 2 6 11 16 20 23 25 26 27 30 33 35 36 36 36 35 34
6 8 5 7 5 5 14 5 2 1 2 2 4 2 3 8 7 7 7 8 7 11 11 10 8 4 3 7 12 15 19 22 23 25 26 28 31 34 36 38 40 39 38 37
7 3 10 12 6 7 5 5 2 1 2 3 3 2 3 5 5 5 5 6 9 11 10 7 5 6 10 12 16 18 21 24 25 27 29 31 33 36 38 40 42 43 41 39
6 1 5 2 4 9 6 4 5 2 2 1 2 3 4 1 5 5 7 7 7 7 5 4 7 10 12 16 19 22 24 26 28 31 33 34 34 35 38 39 38 38 37 35
2 4 1 6 5 9 8 6 1 4 3 2 3 3 3 6 5 3 4 6 4 3 3 6 9 12 16 19 22 23 25 28 30 32 32 33 35 37 38 37 34 31 29 29
2 0 5 1 6 5 5 5 4 1 1 2 3 3 2 8 3 3 5 4 2 1 4 8 12 15 18 20 24 25 27 30 31 32 33 35 37 38 37 35 31 27 26 23
3 1 2 2 6 4 7 6 2 2 2 2 2 2 5 7 5 7 6 4 1 2 7 11 14 17 20 23 25 27 30 31 32 34 35 36 38 40 36 32 32 30 25 18
4 3 2 1 0 4 5 7 6 3 1 2 2 2 6 10 10 5 5 2 2 5 9 12 15 20 23 24 26 29 30 31 32 34 37 40 43 39 41 36 28 21 17 15
2 3 3 2 1 3 6 13 10 2 0 4 3 5 13 12 6 4 2 2 5 8 11 14 18 21 23 24 27 28 30 31 34 37 39 41 43 44 35 28 24 19 16 14
3 4 2 3 4 1 3 10 12 7 4 2 4 8 13 10 5 3 2 4 7 10 13 15 18 21 22 25 27 28 30 34 36 38 40 45 45 41 26 24 20 18 17 16
5 2 2 0 4 6 7 13 11 9 11 13 10 7 18 9 5 4 4 6 8 11 13 15 18 20 23 26 28 31 33 36 38 39 45 44 46 33 26 23 20 20 19 18
3 4 2 3 1 3 3 8 8 9 17 7 10 6 13 10 11 8 9 9 11 12 13 15 17 20 23 25 28 32 35 36 39 44 44 44 44 31 26 22 20 22 22 22
4 4 2 1 2 3 2 8 3 11 15 15 11 13 11 12 11 8 8 11 12 11 13 15 17 20 23 25 28 31 34 36 42 45 44 43 41 32 25 23 24 24 25 27
5 2 3 2 3 4 3 6 6 5 9 18 14 18 16 18 7 4 11 9 8 9 13 15 18 21 23 26 29 32 35 39 44 44 41 40 36 32 26 24 24 25 27 29
3 5 2 2 1 3 3 13 18 10 4 21 20 18 18 17 5 5 11 8 9 11 12 14 18 21 23 26 29 32 36 41 43 43 39 43 36 31 27 23 23 24 28 31
5 4 6 4 3 4 8 23 13 1 4 22 19 17 15 7 8 16 6 6 10 12 12 15 18 21 23 26 29 33 37 40 40 40 39 42 37 31 27 24 24 25 30 32
5 4 4 4 3 2 21 8 4 5 14 17 17 15 14 13 7 4 4 6 9 11 12 15 18 20 23 26 29 33 36 37 38 40 41 40 38 35 29 27 26 27 30 34
2 2 1 2 2 11 16 15 10 7 14 14 15 16 12 10 4 2 4 7 9 11 12 15 18 19 22 25 29 32 34 36 37 41 43 40 39 38 35 32 29 29 31 34
1 3 1 4 3 18 13 7 2 13 15 18 15 13 10 7 2 2 3 7 8 10 11 14 16 18 21 24 26 29 32 34 36 40 43 42 40 38 38 35 33 30 30 33
3 7 5 3 4 16 1 7 20 21 18 18 14 10 7 4 1 2 4 6 8 10 11 13 15 17 20 22 25 28 31 33 36 39 41 44 41 36 35 34 33 31 29 29
5 3 3 2 14 12 20 17 18 21 21 18 15 6 3 1 1 2 3 5 7 9 10 12 14 15 18 21 24 26 29 32 34 38 40 43 44 39 33 30 29 28 27 28
Wind_Direction
32 74 45 7 18 102 100 90 359 304 33 81 80 55 32 21 23 14 21 193 193 194 193 192 200 207 213 220 224 224 230 240 252 267 280 286 294 299 300 303 303 298 293 288
68 56 344 35 40 85 59 64 360 294 333 315 132 49 28 30 26 12 11 157 184 178 186 197 204 211 231 236 230 228 235 248 262 274 283 292 300 301 302 305 301 296 293 288
82 352 320 70 41 25 4 29 330 303 332 72 169 89 17 25 26 32 36 60 132 158 180 193 198 206 246 237 234 229 240 256 269 284 295 298 299 301 304 305 300 298 294 288
63 358 27 39 54 8 310 5 316 304 270 177 2 347 30 360 26 35 30 37 61 132 167 179 188 209 249 229 220 226 245 271 290 299 299 302 303 303 306 304 302 301 296 290
45 29 24 27 345 330 322 317 288 287 191 166 17 80 4 15 7 15 28 33 50 85 124 138 141 169 173 188 213 258 286 299 302 302 304 305 305 306 307 304 304 303 299 293
47 343 33 328 312 338 327 329 58 83 126 95 355 351 30 14 341 353 17 27 41 71 115 119 123 138 156 208 295 308 310 308 308 310 310 310 308 308 305 305 303 302 301 297
344 28 341 9 341 356 1 343 2 122 42 70 354 47 31 1 5 349 3 28 61 98 109 110 105 87 20 344 328 322 319 320 319 318 317 313 309 308 307 306 303 302 298 296
19 19 2 345 18 324 330 17 39 303 349 6 31 66 38 22 37 20 43 72 98 105 101 94 65 16 353 342 335 333 330 329 327 324 320 317 315 312 310 307 303 297 295 293
357 285 319 315 333 5 355 24 339 294 40 254 345 110 323 89 42 38 71 101 105 101 95 51 13 358 347 342 341 338 335 332 332 328 326 325 324 321 316 313 308 302 299 296
25 315 318 314 5 17 47 350 8 26 22 20 27 40 57 20 17 74 112 131 123 111 44 6 354 349 347 343 340 340 338 336 333 333 333 333 330 326 322 319 315 308 301 298
30 73 343 355 29 340 360 24 19 85 4 329 338 69 271 303 304 155 166 166 160 58 351 349 350 347 343 342 343 341 340 338 340 340 339 336 334 331 329 327 324 317 307 300
355 50 341 338 334 17 64 46 61 360 359 293 308 78 336 8 42 144 155 177 181 343 348 348 343 342 345 345 345 345 345 344 345 345 344 341 340 339 336 333 327 318 310 308
340 28 359 130 22 31 23 346 333 216 183 288 334 86 354 46 62 86 126 154 1 354 347 340 342 348 346 348 348 349 349 350 349 348 347 348 347 344 340 332 341 344 338 329
107 55 33 101 21 339 321 327 345 227 311 333 40 12 4 12 40 65 77 20 360 346 341 343 346 347 350 351 352 354 357 355 353 352 350 350 350 350 347 356 357 357 352 342
50 41 356 303 279 293 305 353 3 32 340 36 23 43 5 9 13 34 2 356 345 339 345 347 347 351 353 356 0 2 1 358 354 353 354 359 354 352 1 8 9 8 2 355
2 25 333 165 24 148 62 19 14 24 31 52 55 46 358 7 19 5 345 335 334 341 346 349 352 355 358 2 3 3 359 357 355 355 3 359 354 3 11 14 16 17 13 14
22 354 356 121 14 151 49 17 22 50 39 30 39 351 355 7 358 345 334 330 333 344 351 356 358 359 3 3 2 2 359 357 358 4 2 358 357 13 20 23 26 25 29 35
354 356 319 284 261 73 82 27 23 66 46 31 27 11 358 336 318 329 334 330 339 351 359 3 4 6 6 5 6 4 3 2 5 6 2 360 7 23 28 33 36 40 45 46
34 16 339 347 58 100 45 16 350 350 47 24 7 359 354 343 327 46 358 352 358 2 6 12 7 9 8 8 7 8 8 8 9 5 6 7 20 30 35 41 46 51 55 58
24 43 47 350 43 81 20 330 321 291 71 6 357 354 349 343 30 30 6 20 12 10 16 13 12 12 9 10 11 11 13 13 11 8 13 14 28 38 42 47 56 63 62 64
358 4 22 16 53 87 345 337 326 63 332 331 342 340 343 342 299 301 341 11 7 16 18 12 16 12 10 12 14 15 17 17 12 14 16 16 34 46 50 58 67 71 70 72
12 359 15 342 28 49 354 356 47 316 309 320 332 337 335 334 357 62 50 13 13 18 17 16 17 14 12 13 16 18 19 20 17 20 20 18 38 49 58 67 75 73 74 75
17 15 325 307 306 335 323 293 281 310 313 325 327 336 342 350 9 48 21 10 16 19 17 16 17 15 14 16 17 19 21 22 25 24 23 23 39 53 60 67 75 75 75 78
5 330 267 301 21 330 323 173 5 338 327 334 340 339 349 345 348 317 3 9 16 19 17 17 16 18 15 18 19 21 23 26 29 30 27 27 37 52 60 64 69 74 75 79
307 322 322 287 328 345 100 249 318 334 341 340 342 339 348 351 289 312 357 16 18 20 21 19 18 18 18 19 20 23 25 27 32 36 32 31 36 52 58 62 62 64 70 77
350 342 349 294 299 289 280 315 333 327 337 337 328 334 310 25 237 296 355 17 25 24 25 21 21 20 21 22 23 26 28 28 33 39 38 37 37 50 61 70 74 66 73 73
Height
1493 1495 1503 1503 1499 1499 1500 1501 1502 1497 1496 1499 1504 1503 1503 1502 1495 1494 1494 1496 1498 1501 1505 1508 1512 1516 1519 1522 1523 1523 1525 1525 1525 1525 1524 1522 1521 1518 1516 1512 1508 1505 1503 1502
1498 1506 1507 1504 1501 1500 1502 1503 1503 1498 1498 1498 1503 1504 1504 1504 1504 1502 1498 1498 1501 1503 1506 1510 1513 1518 1521 1521 1522 1522 1523 1524 1523 1522 1521 1519 1516 1513 1509 1506 1503 1500 1497 1494
1504 1513 1508 1505 1505 1503 1503 1504 1504 1505 1500 1499 1502 1504 1503 1507 1507 1505 1504 1503 1504 1506 1509 1511 1514 1517 1520 1520 1521 1522 1523 1522 1521 1520 1518 1515 1511 1507 1502 1499 1496 1493 1490 1487
1512 1515 1510 1507 1508 1510 1507 1506 1505 1502 1501 1500 1501 1502 1507 1508 1508 1510 1510 1509 1510 1510 1511 1513 1516 1518 1519 1519 1521 1522 1522 1521 1520 1517 1514 1510 1506 1500 1496 1492 1488 1485 1482 1479
1523 1517 1514 1512 1515 1513 1509 1505 1504 1501 1500 1502 1505 1506 1510 1511 1509 1514 1516 1516 1514 1514 1515 1516 1517 1519 1519 1520 1521 1522 1522 1520 1517 1513 1509 1504 1498 1494 1488 1484 1479 1476 1474 1471
1523 1520 1520 1520 1514 1513 1510 1502 1503 1503 1502 1508 1514 1511 1517 1520 1524 1520 1520 1520 1519 1518 1518 1520 1520 1521 1521 1522 1522 1522 1519 1516 1512 1508 1504 1498 1493 1487 1481 1476 1472 1467 1464 1461
1527 1524 1523 1521 1516 1512 1511 1506 1506 1505 1506 1513 1514 1513 1524 1525 1527 1526 1524 1522 1522 1521 1522 1523 1523 1524 1524 1523 1522 1519 1516 1512 1508 1503 1498 1493 1487 1480 1474 1467 1461 1457 1452 1449
1537 1521 1528 1526 1525 1524 1519 1516 1519 1517 1513 1512 1514 1522 1527 1529 1529 1528 1527 1526 1526 1525 1526 1526 1526 1526 1525 1523 1520 1517 1513 1508 1503 1498 1491 1485 1479 1472 1465 1458 1451 1445 1441 1437
1546 1536 1533 1530 1528 1524 1522 1523 1526 1525 1528 1521 1520 1531 1530 1528 1529 1530 1529 1529 1529 1529 1529 1528 1528 1526 1524 1521 1518 1513 1509 1503 1498 1491 1485 1478 1471 1463 1455 1447 1440 1433 1428 1424
1551 1547 1537 1532 1529 1528 1528 1529 1527 1529 1529 1525 1521 1523 1526 1527 1527 1530 1531 1531 1531 1531 1530 1530 1528 1526 1523 1520 1515 1511 1506 1500 1493 1487 1479 1471 1463 1455 1447 1438 1430 1424 1418 1413
1550 1551 1537 1535 1538 1538 1533 1535 1537 1538 1539 1529 1525 1529 1532 1529 1526 1529 1531 1532 1532 1532 1532 1530 1528 1526 1522 1518 1513 1508 1503 1496 1489 1482 1474 1466 1458 1448 1439 1429 1421 1414 1408 1403
1552 1551 1546 1543 1543 1540 1538 1542 1548 1541 1536 1539 1533 1532 1532 1529 1527 1529 1532 1533 1533 1533 1532 1531 1528 1525 1521 1517 1512 1506 1499 1493 1486 1478 1470 1462 1452 1441 1431 1422 1413 1405 1399 1395
1552 1551 1547 1540 1543 1542 1544 1545 1545 1548 1547 1535 1529 1530 1532 1532 1531 1533 1534 1535 1535 1534 1533 1530 1528 1525 1520 1515 1510 1504 1498 1491 1484 1475 1466 1457 1446 1436 1426 1415 1406 1399 1394 1391
1553 1555 1556 1549 1551 1556 1554 1549 1542 1537 1537 1533 1537 1538 1535 1535 1535 1536 1537 1536 1536 1535 1533 1531 1528 1524 1520 1515 1509 1503 1497 1490 1481 1473 1463 1454 1443 1430 1420 1411 1404 1398 1393 1388
1557 1558 1558 1557 1557 1557 1557 1551 1546 1542 1543 1537 1545 1546 1544 1541 1540 1540 1540 1539 1538 1536 1534 1532 1528 1525 1520 1515 1510 1504 1497 1488 1480 1471 1462 1450 1439 1428 1419 1411 1403 1397 1392 1387
1561 1559 1557 1554 1555 1554 1556 1555 1551 1548 1546 1546 1546 1547 1550 1546 1544 1543 1542 1541 1539 1537 1535 1533 1530 1525 1520 1515 1510 1504 1496 1487 1479 1471 1459 1449 1437 1426 1417 1410 1404 1398 1392 1387
1562 1561 1556 1549 1552 1554 1550 1563 1561 1558 1558 1556 1554 1559 1553 1548 1546 1545 1544 1542 1541 1539 1537 1534 1531 1526 1522 1517 1511 1504 1496 1488 1479 1468 1459 1448 1437 1425 1417 1411 1405 1399 1394 1388
1564 1562 1561 1551 1548 1548 1562 1566 1564 1561 1563 1562 1559 1558 1555 1553 1549 1546 1545 1543 1542 1540 1539 1536 1532 1528 1523 1518 1513 1506 1498 1489 1478 1468 1459 1449 1436 1426 1419 1414 1407 1402 1397 1391
1567 1564 1562 1556 1548 1558 1562 1569 1568 1566 1564 1565 1562 1559 1555 1551 1547 1547 1546 1544 1544 1542 1540 1538 1533 1530 1525 1520 1515 1508 1500 1490 1479 1470 1460 1450 1437 1428 1423 1417 1412 1407 1402 1396
1568 1567 1564 1563 1554 1555 1573 1571 1567 1565 1561 1566 1564 1561 1558 1553 1545 1548 1547 1546 1546 1544 1542 1539 1536 1532 1527 1523 1517 1510 1502 1491 1483 1473 1463 1453 1440 1432 1427 1422 1417 1413 1408 1403
1572 1571 1570 1567 1562 1570 1576 1569 1564 1561 1574 1568 1566 1563 1560 1557 1555 1550 1549 1549 1548 1547 1544 1541 1539 1534 1530 1525 1519 1512 1505 1497 1488 1479 1468 1457 1445 1437 1433 1428 1423 1420 1415 1411
1584 1580 1578 1575 1570 1573 1576 1571 1569 1577 1573 1570 1566 1562 1559 1556 1552 1551 1551 1551 1550 1548 1546 1543 1541 1537 1532 1527 1522 1516 1509 1504 1494 1484 1473 1461 1452 1444 1439 1434 1431 1428 1423 1419
1585 1588 1586 1585 1581 1580 1579 1578 1576 1576 1572 1568 1564 1560 1558 1555 1554 1553 1553 1553 1552 1550 1548 1546 1543 1539 1535 1531 1525 1520 1514 1508 1500 1490 1478 1467 1459 1451 1446 1441 1438 1436 1432 1428
1587 1587 1586 1583 1581 1578 1574 1573 1574 1573 1569 1565 1562 1559 1557 1556 1555 1556 1555 1555 1554 1553 1550 1548 1545 1543 1538 1535 1530 1525 1520 1514 1507 1497 1486 1476 1464 1459 1453 1450 1447 1444 1441 1438
1591 1589 1586 1582 1580 1575 1573 1573 1571 1568 1566 1562 1560 1558 1557 1556 1556 1557 1557 1557 1556 1555 1553 1551 1548 1545 1541 1538 1534 1529 1524 1519 1513 1504 1495 1484 1474 1467 1462 1458 1455 1453 1451 1449
1592 1590 1588 1585 1583 1583 1575 1570 1569 1565 1562 1559 1556 1557 1557 1557 1558 1558 1559 1558 1558 1557 1555 1553 1551 1548 1545 1542 1538 1534 1529 1524 1519 1511 1504 1494 1485 1476 1471 1467 1464 1463 1461 1460